Location: *
(34.0486°S, 61.7880°E)
Time: 13:57:37
(UTC+00:00)

Lacrosse 4 Rocket - Pass Details

Date: 01 April 2020
Orbit: 538 x 620 km, 68.0° (Epoch: 04 June)

Event Time Altitude Azimuth Distance (km) Brightness Sun altitude
Rises 15:59:15 0° 312° (NW) 2,788 5.4 -28.0°
Reaches altitude 10° 16:01:43 10° 300° (WNW) 1,882 4.6 -28.5°
Maximum altitude 16:05:23 28° 240° (WSW) 1,076 3.3 -29.2°
Enters shadow 16:06:55 22° 204° (SSW) 1,250 3.4 -29.5°
